(100176) = 1994 AD5 = 2000 EA117

Discovered at Kitt Peak on 1994-01-05 by Spacewatch.

Orbit

Orbit type: Main Belt

Note: WebGL enabled browser required.

epoch2023-09-13.0
epoch JD2460200.5
perihelion date2022-04-30.69786
perihelion JD2459700.19786
argument of perihelion (°)251.02212
ascending node (°)48.69102
inclination (°)1.21896
eccentricity0.0529778
perihelion distance (AU)2.8248942
Tisserand w.r.t. Jupiter3.3
ΔV w.r.t. Earth (km/sec)10.5
semimajor axis (AU)2.9829229
mean anomaly (°)95.71349
mean daily motion (°/day)0.19131140
aphelion distance (AU)3.141
period (years)5.15
P-vector [x]0.49549711
P-vector [y]-0.78871792
P-vector [z]-0.36387725
Q-vector [x]0.86846259
Q-vector [y]0.45755364
Q-vector [z]0.19083345
absolute magnitude15.62
phase slope0.15
uncertainty0
referenceMPEC 2024-A55
observations used665
oppositions18
arc length (days)10956
first opposition used1994
last opposition used2024
residual rms (arc-secs)0.72
perturbers coarse indicatorM-v
perturbers precise indicator003Ek
first observation date used1994-01-05.0
last observation date used2024-01-04.0
computer nameMPCLINUX
JD of orbit computation2456760.632887
perihelion JD uncertainty (days)4.5054E-04
argument of perihelion uncertainty (°)3.4631E-04
ascending node uncertainty (°)3.3546E-04
inclination uncertainty (°)6.8803E-06
eccentricity uncertainty 6.1403E-08
perihelion distance uncertainty (AU)1.7780E-07
Minimum Orbit Intersection Distances (in AU)
for orbit epoch: 2460200.5, reference: E2024-A55
Mercury2.37552
Venus2.09698
Earth1.8089
Mars1.36721
Jupiter1.96415
Saturn5.93092
Uranus15.3476
Neptune26.8348

Observations

683 total observations over interval: 1994 01 05.21509 – 2024 01 04.367470
These data are available for download (format description).

Date (UT) J2000 RA J2000 Dec Magn Location Ref
1994 01 05.21509 08 15 25.64 +21 28 16.5   691 – Steward Observatory, Kitt Peak-Spacewatch MPC 23048
1994 01 05.26081 08 15 23.49 +21 28 24.2 19.9 V 691 – Steward Observatory, Kitt Peak-Spacewatch MPC 23048
1994 01 05.30714 08 15 21.15 +21 28 32.4   691 – Steward Observatory, Kitt Peak-Spacewatch MPC 23048
1994 01 14.33952 08 07 38.40 +21 54 35.9 20.2 V 691 – Steward Observatory, Kitt Peak-Spacewatch MPC 23048
1994 01 14.35841 08 07 37.35 +21 54 39.3   691 – Steward Observatory, Kitt Peak-Spacewatch MPC 23048
1994 01 14.37685 08 07 36.35 +21 54 42.7   691 – Steward Observatory, Kitt Peak-Spacewatch MPC 23048
1994 01 19.31090 08 03 10.66 +22 08 28.2 19.5 V 691 – Steward Observatory, Kitt Peak-Spacewatch MPC 23048
1994 01 19.34223 08 03 08.92 +22 08 32.7   691 – Steward Observatory, Kitt Peak-Spacewatch MPC 23048
1994 01 19.37339 08 03 07.17 +22 08 37.6   691 – Steward Observatory, Kitt Peak-Spacewatch MPC 23048
2000 03 10.38970 12 36 33.20 -02 32 41.3 20.0   704 – Lincoln Laboratory ETS, New Mexico MPS 12436
2000 03 10.42330 12 36 31.79 -02 32 33.8 20.4   704 – Lincoln Laboratory ETS, New Mexico MPS 12436
2000 03 10.43590 12 36 31.32 -02 32 30.8 20.6   704 – Lincoln Laboratory ETS, New Mexico MPS 12436
2000 03 14.43383 12 33 46.70 -02 15 17.6 20.1 V 691 – Steward Observatory, Kitt Peak-Spacewatch MPS 12436
2000 03 14.45905 12 33 45.60 -02 15 10.4 20.4 V 691 – Steward Observatory, Kitt Peak-Spacewatch MPS 12436
2000 03 14.50224 12 33 43.67 -02 14 59.7 20.8 V 691 – Steward Observatory, Kitt Peak-Spacewatch MPS 12436
2000 04 05.20418 12 17 12.12 -00 33 44.8 19.8   704 – Lincoln Laboratory ETS, New Mexico MPS 12436
2000 04 05.23335 12 17 10.75 -00 33 38.4 19.6   704 – Lincoln Laboratory ETS, New Mexico MPS 12436
2000 04 05.24794 12 17 10.18 -00 33 34.8 19.9   704 – Lincoln Laboratory ETS, New Mexico MPS 12436
2000 04 05.26549 12 17 09.28 -00 33 28.3 20.0   704 – Lincoln Laboratory ETS, New Mexico MPS 12436
2002 09 27.20754 01 11 43.96 +06 28 04.8 20.3   644 – Palomar Mountain/NEAT MPS 62489
2002 09 27.27978 01 11 40.74 +06 27 46.6 19.8   644 – Palomar Mountain/NEAT MPS 62489
2002 09 27.34800 01 11 37.63 +06 27 30.2 19.7   644 – Palomar Mountain/NEAT MPS 62489
2002 09 28.20769 01 10 59.93 +06 23 50.3 19.8   644 – Palomar Mountain/NEAT MPS 62489
2002 09 28.28085 01 10 56.60 +06 23 31.5 19.7   644 – Palomar Mountain/NEAT MPS 62489
2002 09 28.34955 01 10 53.47 +06 23 13.8 19.7   644 – Palomar Mountain/NEAT MPS 62489
2002 10 02.32246 01 07 53.14 +06 05 51.5 19.6   704 – Lincoln Laboratory ETS, New Mexico MPS 62489
2002 10 02.33807 01 07 52.39 +06 05 48.8 20.0   704 – Lincoln Laboratory ETS, New Mexico MPS 62489
2002 10 02.35370 01 07 51.60 +06 05 44.4 20.1   704 – Lincoln Laboratory ETS, New Mexico MPS 62489
2002 10 02.38479 01 07 50.10 +06 05 34.2 19.8   704 – Lincoln Laboratory ETS, New Mexico MPS 62489
2002 10 03.25682 01 07 09.85 +06 01 41.5 19.3   704 – Lincoln Laboratory ETS, New Mexico MPS 62489
2002 10 03.27226 01 07 09.14 +06 01 38.1 19.7   704 – Lincoln Laboratory ETS, New Mexico MPS 62489
2002 10 03.28776 01 07 08.40 +06 01 32.4 19.9   704 – Lincoln Laboratory ETS, New Mexico MPS 62489
2002 10 03.30328 01 07 07.60 +06 01 30.0 19.7   704 – Lincoln Laboratory ETS, New Mexico MPS 62489
2002 10 03.31867 01 07 06.88 +06 01 25.1 19.6   704 – Lincoln Laboratory ETS, New Mexico MPS 62489
2002 10 11.24782 01 00 52.13 +05 25 28.9 19.4   704 – Lincoln Laboratory ETS, New Mexico MPS 62489
2002 10 11.26373 01 00 51.32 +05 25 23.8 19.5   704 – Lincoln Laboratory ETS, New Mexico MPS 62489
2002 10 11.29517 01 00 49.77 +05 25 15.3 19.4   704 – Lincoln Laboratory ETS, New Mexico MPS 62489
2005 03 03.33769 11 52 55.69 +02 23 35.8 19.9 R 703 – Catalina Sky Survey MPS 127066
2005 03 03.34799 11 52 55.22 +02 23 38.3 19.2 R 703 – Catalina Sky Survey MPS 127066
2005 03 03.35829 11 52 54.72 +02 23 41.2 19.7 R 703 – Catalina Sky Survey MPS 127066
2005 03 03.36858 11 52 54.23 +02 23 42.8 19.4 R 703 – Catalina Sky Survey MPS 127066
2005 03 08.34986 11 49 15.44 +02 47 07.0 19.4   704 – Lincoln Laboratory ETS, New Mexico MPS 127697
2005 03 08.36119 11 49 14.90 +02 47 11.4 20.4   704 – Lincoln Laboratory ETS, New Mexico MPS 127697
2005 03 08.38413 11 49 13.77 +02 47 16.1 19.7   704 – Lincoln Laboratory ETS, New Mexico MPS 127697
2005 03 08.39729 11 49 13.21 +02 47 19.0 20.0   704 – Lincoln Laboratory ETS, New Mexico MPS 127697
2005 04 04.27727 11 29 08.74 +04 49 07.0 19.5 R G96 – Mt. Lemmon Survey MPS 130555
2005 04 04.28357 11 29 08.48 +04 49 08.3 19.6 R G96 – Mt. Lemmon Survey MPS 130555
2005 04 04.28988 11 29 08.24 +04 49 09.8 19.5 R G96 – Mt. Lemmon Survey MPS 130555
2005 04 04.29619 11 29 07.96 +04 49 11.0 19.5 R G96 – Mt. Lemmon Survey MPS 130555
2005 04 17.14333 11 22 12.51 +05 26 53.6 20.7 V 691 – Steward Observatory, Kitt Peak-Spacewatch MPS 132478
2005 04 17.15979 11 22 12.09 +05 26 55.6 20.4 V 691 – Steward Observatory, Kitt Peak-Spacewatch MPS 132478
2005 04 17.17599 11 22 11.66 +05 26 57.5 20.4 V 691 – Steward Observatory, Kitt Peak-Spacewatch MPS 132478
2007 09 11.28749 00 26 53.35 +01 24 32.2 19.7 V 691 – Steward Observatory, Kitt Peak-Spacewatch MPS 215772
2007 09 11.30508 00 26 52.60 +01 24 28.0 19.5 V 691 – Steward Observatory, Kitt Peak-Spacewatch MPS 215772
2007 09 11.32612 00 26 51.73 +01 24 23.7 19.5 V 691 – Steward Observatory, Kitt Peak-Spacewatch MPS 215772
2007 09 11.35345 00 26 50.60 +01 24 15.1 19.2 V G96 – Mt. Lemmon Survey MPS 215772
2007 09 11.36106 00 26 50.28 +01 24 13.3 19.1 V G96 – Mt. Lemmon Survey MPS 215772
2007 09 11.36862 00 26 49.95 +01 24 11.3 19.8 V G96 – Mt. Lemmon Survey MPS 215772
2007 09 11.37617 00 26 49.63 +01 24 09.5 19.2 V G96 – Mt. Lemmon Survey MPS 215772
2007 09 19.23110 00 21 10.94 +00 48 52.3 19.6   704 – Lincoln Laboratory ETS, New Mexico MPS 217504
2007 09 19.25504 00 21 09.81 +00 48 44.6 19.9   704 – Lincoln Laboratory ETS, New Mexico MPS 217504
2007 09 19.26703 00 21 09.26 +00 48 40.7 19.8   704 – Lincoln Laboratory ETS, New Mexico MPS 217504
2007 09 19.27899 00 21 08.65 +00 48 37.6 19.9   704 – Lincoln Laboratory ETS, New Mexico MPS 217504
2007 09 21.29334 00 19 36.98 +00 39 12.4 20.1   704 – Lincoln Laboratory ETS, New Mexico MPS 218003
2007 09 21.31769 00 19 35.81 +00 39 05.5 19.4   704 – Lincoln Laboratory ETS, New Mexico MPS 218003
2007 09 21.32990 00 19 35.22 +00 39 02.1 19.9   704 – Lincoln Laboratory ETS, New Mexico MPS 218003
2007 10 06.20405 00 08 11.49 -00 29 54.1 19.7   704 – Lincoln Laboratory ETS, New Mexico MPS 219836
2007 10 06.21490 00 08 11.05 -00 29 55.2 20.3   704 – Lincoln Laboratory ETS, New Mexico MPS 219836
2007 10 06.22585 00 08 10.55 -00 29 59.4 20.0   704 – Lincoln Laboratory ETS, New Mexico MPS 219836
2007 10 06.23668 00 08 10.07 -00 30 03.2 20.3   704 – Lincoln Laboratory ETS, New Mexico MPS 219836
2007 10 06.24751 00 08 09.55 -00 30 06.3 19.9   704 – Lincoln Laboratory ETS, New Mexico MPS 219836
2007 10 08.23273 00 06 42.58 -00 38 38.6 19.9 r 699 – Lowell Observatory-LONEOS MPS 219836
2007 10 08.25465 00 06 41.51 -00 38 43.5   699 – Lowell Observatory-LONEOS MPS 219836
2007 10 08.26550 00 06 41.11 -00 38 46.9 19.6 V G96 – Mt. Lemmon Survey MPS 219836
2007 10 08.27223 00 06 40.86 -00 38 48.4 19.6 V G96 – Mt. Lemmon Survey MPS 219836
2007 10 08.27658 00 06 40.54 -00 38 50.5   699 – Lowell Observatory-LONEOS MPS 219836
2007 10 08.27905 00 06 40.53 -00 38 50.1 19.6 V G96 – Mt. Lemmon Survey MPS 219836
2007 10 08.28572 00 06 40.24 -00 38 52.1 19.8 V G96 – Mt. Lemmon Survey MPS 219836
2007 10 08.29852 00 06 39.67 -00 38 55.4   699 – Lowell Observatory-LONEOS MPS 219836
2007 10 17.16722 00 00 44.48 -01 12 59.8 20.1 r 699 – Lowell Observatory-LONEOS MPS 222007
2007 10 17.19010 00 00 43.54 -01 13 04.4 20.5 r 699 – Lowell Observatory-LONEOS MPS 222007
2007 10 17.21293 00 00 42.57 -01 13 10.2 19.7 r 699 – Lowell Observatory-LONEOS MPS 222007
2007 10 17.23577 00 00 41.76 -01 13 13.3 19.4 r 699 – Lowell Observatory-LONEOS MPS 222007
2007 12 05.18382 23 55 22.18 -01 19 15.1 20.8 V G96 – Mt. Lemmon Survey MPS 230661
2007 12 05.18977 23 55 22.26 -01 19 14.4 21.1 V G96 – Mt. Lemmon Survey MPS 230661
2007 12 05.19572 23 55 22.40 -01 19 13.1 20.9 V G96 – Mt. Lemmon Survey MPS 230661
